Station NMTA2 - 9468756 - Nome, Norton Sound, AK Image indicating link to RSS feed of recent meteorological observations for station NMTA2


Conditions at NMTA2 as of
(2:48 pm AKDT)
2248 GMT on 04/14/2024:
     

Click on the graph icon in the table below to see a time series plot of the last five days of that observation.

5-day plot - Wind Direction Wind Direction (WDIR): E ( 80 deg true )
5-day plot - Wind Speed Wind Speed (WSPD): 9.9 kts
5-day plot - Wind Gust Wind Gust (GST): 12.0 kts
5-day plot - Atmospheric Pressure Atmospheric Pressure (PRES):30.15 in
5-day plot - Water Temperature Water Temperature (WTMP): 32.0 °F
5-day plot - Wind Speed at 10 Meters Wind Speed at 10 meters (WSPD10M): 9.7 kts
5-day plot - Wind Speed at 20 Meters Wind Speed at 20 meters (WSPD20M): 11.7 kts
5-day plot -  Wind Speed, Wind Gust and Atmospheric Pressure Combined plot of Wind Speed, Gust, and Air Pressure
NOS Water Level Observation Network Water Level
Previous observations
TIME
(AKDT)
5-day plot - Wind Direction
WDIR
 
5-day plot - Wind Speed
WSPD
kts
5-day plot - Wind Gust
GST
kts
5-day plot - Wave Height
WVHT
ft
5-day plot - Dominant Wave Period
DPD
sec
5-day plot - Average Wave Period
APD
sec
5-day plot - Mean Wave Direction
MWD
 
5-day plot - Atmospheric Pressure
PRES
in
5-day plot - Pressure Tendency
PTDY
in
5-day plot - Air Temperature
ATMP
°F
5-day plot - Water Temperature
WTMP
°F
5-day plot - Dew Point
DEWP
°F
5-day plot - Salinity
SAL
psu
5-day plot - Visibility
VIS
nmi
5-day plot - Tide (above MLLW)
TIDE
ft
2024-04-14 02:42 pm E 8.9 11.1----30.15- 21.4 32.0----
2024-04-14 02:36 pm E 7.0 11.1----30.16- 21.4 32.0----
2024-04-14 02:30 pm E 9.9 13.0----30.15- 21.0 32.0----
2024-04-14 02:24 pm E 8.0 11.1----30.16- 21.2 32.0----
2024-04-14 02:18 pm E 9.9 12.0----30.15- 20.8 32.0----
2024-04-14 02:12 pm E 9.9 13.0----30.16- 20.5 32.0----
2024-04-14 02:06 pm E 12.0 13.0----30.16- 20.1 32.0----
2024-04-14 02:00 pm E 9.9 12.0----30.16+0.00 20.1 32.0----
2024-04-14 01:54 pm E 11.1 13.0----30.16- 19.6 32.0----
2024-04-14 01:48 pm E 12.0 14.0----30.16-- 32.0----
2024-04-14 01:42 pm E 12.0 15.0----30.16-- 32.0----
2024-04-14 01:36 pm E 12.0 13.0----30.16-- 32.0----
2024-04-14 01:30 pm E 12.0 15.0----30.16-- 32.0----
2024-04-14 01:24 pm E 13.0 15.0----30.16-- 32.0----
2024-04-14 01:18 pm E 12.0 14.0----30.16- 18.9 32.0----
2024-04-14 01:12 pm E 11.1 13.0----30.16- 18.7 32.0----
2024-04-14 01:06 pm E 12.0 13.0----30.16- 18.7 32.0----
2024-04-14 01:00 pm E 12.0 13.0----30.16+0.00 18.5 32.0----
2024-04-14 12:54 pm E 9.9 12.0----30.16- 18.5 32.0----
2024-04-14 12:48 pm E 11.1 12.0----30.16- 18.5 32.0----
2024-04-14 12:42 pm E 9.9 12.0----30.16- 18.3 32.0----
2024-04-14 12:36 pm E 9.9 12.0----30.16- 18.3 32.0----
2024-04-14 12:30 pm E 9.9 12.0----30.16- 18.1 32.0----
2024-04-14 12:24 pm E 8.9 12.0----30.16- 18.1 32.0----
2024-04-14 12:18 pm E 9.9 11.1----30.16- 18.0 32.0----
2024-04-14 12:12 pm E 9.9 12.0----30.16- 17.8 32.0----
2024-04-14 12:06 pm E 11.1 12.0----30.15- 18.0 32.0----
2024-04-14 12:00 pm E 11.1 12.0----30.16+0.00 18.0 32.0----
2024-04-14 11:54 am E 11.1 13.0----30.16- 17.8 32.0----
2024-04-14 11:48 am E 11.1 13.0----30.16- 17.6 32.0----
2024-04-14 11:42 am E 9.9 12.0----30.16- 17.6 32.0----
2024-04-14 11:36 am E 11.1 13.0----30.16- 17.6 32.0----
2024-04-14 11:30 am E 9.9 12.0----30.16- 17.6 32.0----
2024-04-14 11:24 am E 11.1 12.0----30.16- 17.2 32.0----
2024-04-14 11:18 am E 11.1 12.0----30.16-- 32.0----
2024-04-14 11:12 am E 11.1 12.0----30.16- 17.1 32.0----
2024-04-14 11:06 am E 11.1 13.0----30.16- 17.2 32.0----
2024-04-14 11:00 am E 9.9 12.0----30.16+0.00------
2024-04-14 10:54 am E 9.9 12.0----30.16-------
2024-04-14 10:48 am E 9.9 11.1----30.16- 17.4 32.0----
2024-04-14 10:42 am E 8.9 9.9----30.16- 17.4 32.0----
2024-04-14 10:36 am E 8.9 11.1----30.16- 17.4 32.0----
2024-04-14 10:30 am E 8.0 9.9----30.16- 17.4 32.0----
2024-04-14 10:24 am E 8.0 9.9----30.16- 17.1 32.0----
2024-04-14 10:18 am E 8.9 9.9----30.16- 17.1 32.0----
2024-04-14 10:12 am E 8.0 8.9----30.16- 17.1 32.0----
2024-04-14 10:06 am E 7.0 8.9----30.16- 16.9 32.0----
2024-04-14 10:00 am E 8.0 9.9----30.16+0.01 16.5 32.0----
2024-04-14 09:54 am E 8.0 8.9----30.16- 16.3 32.0----
2024-04-14 09:48 am E 8.0 8.9----30.16- 16.3 32.0----
2024-04-14 09:42 am E 7.0 8.0----30.16- 15.8 32.0----
2024-04-14 09:36 am E 5.1 7.0----30.16- 15.3 32.0----
2024-04-14 09:30 am E 4.1 5.1----30.16- 15.3 32.0----
2024-04-14 09:24 am E 4.1 7.0----30.16- 15.1 32.0----
2024-04-14 09:18 amENE 6.0 6.0----30.16- 14.9 32.0----
2024-04-14 09:12 amENE 5.1 7.0----30.16- 15.3 32.0----
2024-04-14 09:06 am E 7.0 8.0----30.16- 14.9 32.0----
2024-04-14 09:00 am E 7.0 8.0----30.16+0.00 14.7 32.0----
2024-04-14 08:54 am E 7.0 8.0----30.16- 14.5 32.0----
2024-04-14 08:48 am E 7.0 8.9----30.16-- 32.0----
2024-04-14 08:42 am E 8.0 8.0----30.16-- 32.0----
2024-04-14 08:36 am E 7.0 7.0----30.16-- 32.0----
2024-04-14 08:30 am E 7.0 7.0----30.16-- 32.0----
2024-04-14 08:24 am E 6.0 6.0----30.16-- 32.0----
2024-04-14 08:18 am E 5.1 5.1----30.16-------
2024-04-14 08:12 am E 5.1 6.0----30.16- 10.4 32.0----
2024-04-14 08:06 am E 6.0 7.0----30.16- 11.1 32.0----
2024-04-14 08:00 amESE 6.0 6.0----30.16+0.00 11.1 32.0----
2024-04-14 07:54 am E 5.1 6.0----30.16- 10.2 32.0----
2024-04-14 07:48 am E 6.0 6.0----30.16- 9.7 32.0----
2024-04-14 07:42 am E 5.1 5.1----30.16- 8.4 32.0----
2024-04-14 07:36 am E 5.1 5.1----30.16- 8.8 32.0----
2024-04-14 07:30 am E 5.1 5.1----30.16-- 32.0----
2024-04-14 07:24 am E 4.1 5.1----30.16-- 32.0----
2024-04-14 07:18 am E 4.1 5.1----30.16-- 32.0----
2024-04-14 07:12 am E 4.1 4.1----30.15-- 32.0----
2024-04-14 07:06 am E 2.9 4.1----30.15-- 32.0----
2024-04-14 07:00 am E 2.9 4.1----30.15+0.00 12.4 32.0----
2024-04-14 06:54 am E 4.1 4.1----30.15- 11.7 32.0----
2024-04-14 06:48 am E 4.1 5.1----30.15-- 32.0----
2024-04-14 06:42 am E 4.1 5.1----30.16- 11.8 32.0----
2024-04-14 06:36 am E 1.9 4.1----30.16- 11.1 32.0----
2024-04-14 06:30 amENE 2.9 2.9----30.16- 11.1 32.0----
2024-04-14 06:24 amENE 2.9 4.1----30.16- 10.4 32.0----
2024-04-14 06:18 am E 4.1 4.1----30.16-- 32.0----
2024-04-14 06:12 am E 4.1 5.1----30.16- 9.9 32.0----
2024-04-14 06:06 am E 4.1 4.1----30.16- 10.8 32.0----
2024-04-14 06:00 am E 4.1 4.1----30.16+0.01- 32.0----
2024-04-14 05:54 am E 2.9 4.1----30.16-- 32.0----
2024-04-14 05:48 am E 2.9 4.1----30.16-------
2024-04-14 05:42 am E 2.9 4.1----30.16- 12.6 32.0----
2024-04-14 05:36 am E 2.9 2.9----30.16- 12.4 32.0----
2024-04-14 05:30 am E 2.9 2.9----30.16-- 32.0----
2024-04-14 05:24 amENE 2.9 2.9----30.16-- 32.0----
2024-04-14 05:18 amENE 2.9 2.9----30.16- 13.1 32.0----
2024-04-14 05:12 am NE 1.9 1.9----30.16- 14.5 32.0----
2024-04-14 05:06 amENE 1.0 1.9----30.16- 14.5 32.0----
2024-04-14 05:00 amENE 1.9 2.9----30.16- 14.0 32.0----
2024-04-14 04:54 amENE 1.9 5.1----30.15- 13.8 32.0----
2024-04-14 04:48 am-------30.15- 13.8 32.0----
2024-04-14 04:42 am-------30.15- 14.4 32.0----
2024-04-14 04:36 am-------30.15- 12.9 32.0----
2024-04-14 04:30 am E 4.1 5.1----30.15-- 32.0----
2024-04-14 04:24 amENE 2.9 4.1----30.15-- 32.0----
2024-04-14 04:18 amENE 2.9 4.1----30.15- 14.7 32.0----
2024-04-14 04:12 amENE 2.9 5.1----30.15- 14.7 32.0----
2024-04-14 04:06 am E 4.1 5.1----30.15- 15.1 32.0----
2024-04-14 04:00 am E 4.1 5.1----30.15+0.00- 32.0----
2024-04-14 03:54 am E 4.1 5.1----30.15-- 32.0----
2024-04-14 03:48 am E 1.9 2.9----30.15-- 32.0----
2024-04-14 03:42 am E 2.9 4.1----30.15-- 32.0----
2024-04-14 03:36 am E 4.1 4.1----30.15-- 32.0----
2024-04-14 03:30 amENE 2.9 4.1----30.14- 13.5 32.0----
2024-04-14 03:24 am E 2.9 4.1----30.15- 12.9 32.0----
2024-04-14 03:18 amENE 4.1 4.1----30.15-------
2024-04-14 03:12 amENE 2.9 2.9----30.15-------
2024-04-14 03:06 amENE 2.9 4.1----30.15-------
2024-04-14 03:00 am E 2.9 2.9----30.15+0.00 12.9 32.0----
2024-04-14 02:54 am E 1.9 2.9----30.15- 12.4 32.0----
2024-04-14 02:48 am E 2.9 4.1----30.15-- 32.0----
2024-04-14 02:42 amENE 4.1 4.1----30.15-- 32.0----
2024-04-14 02:36 amENE 4.1 4.1----30.15-- 32.0----
2024-04-14 02:30 amENE 4.1 4.1----30.15- 12.7 32.0----
2024-04-14 02:24 am NE 4.1 4.1----30.15- 12.2 32.0----
2024-04-14 02:18 am NE 4.1 4.1----30.15-- 32.0----
2024-04-14 02:12 am NE 4.1 4.1----30.15- 12.0 32.0----
2024-04-14 02:06 am NE 2.9 2.9----30.15- 11.8 32.0----
2024-04-14 02:00 am NE 2.9 2.9------ 11.7-----
2024-04-14 01:54 am NE 2.9 2.9------ 11.1-----
2024-04-14 01:48 am NE 1.9 2.9------ 10.9 32.0----
2024-04-14 01:42 am NE 2.9 4.1------ 10.4 32.0----
2024-04-14 01:36 am NE 4.1 4.1------ 10.8 32.0----
2024-04-14 01:30 am NE 2.9 2.9----30.15-- 32.0----
2024-04-14 01:24 am NE 1.9 2.9----30.15-- 32.0----
2024-04-14 01:18 am NE 1.9 2.9----30.15- 11.1 32.0----
2024-04-14 01:12 am NE 1.9 1.9----30.15- 11.5 32.0----
2024-04-14 01:06 amENE 1.0 1.9----30.15- 11.5 32.0----
2024-04-14 01:00 am- 0.0 1.0----30.15+0.03 10.9 32.0----
2024-04-14 12:54 am- 0.0 2.9----30.15- 11.5 32.0----
2024-04-14 12:48 am N 2.9 2.9----30.15-- 32.0----
2024-04-14 12:42 am N 1.9 4.1----30.15- 12.7 32.0----
2024-04-14 12:36 amNNE 2.9 4.1----30.14- 11.5 32.0----
2024-04-14 12:30 am NE 1.9 1.9----30.14- 10.6 32.0----
2024-04-14 12:24 amNNE 1.9 4.1----30.14- 12.4 32.0----
2024-04-14 12:18 amNNE 4.1 5.1----30.14-- 32.0----
2024-04-14 12:12 amNNE 4.1 5.1----30.14- 12.2 32.0----
2024-04-14 12:06 am NE 4.1 5.1----30.14- 12.2 32.0----
2024-04-14 12:00 amNNE 4.1 5.1----30.14+0.04 11.5 32.0----
2024-04-13 11:54 pm NE 4.1 4.1----30.14- 10.6 32.0----
2024-04-13 11:48 pm NE 2.9 4.1----30.14- 10.4 32.0----
2024-04-13 11:42 pmENE 1.9 2.9----30.14- 10.6 32.0----
2024-04-13 11:36 pm E 2.9 4.1----30.14- 10.8 32.0----
2024-04-13 11:30 pmENE 2.9 4.1----30.13- 11.3 32.0----
2024-04-13 11:24 pmENE 2.9 5.1----30.13- 12.4 32.0----
2024-04-13 11:18 pmENE 2.9 4.1----30.13- 12.2 32.0----
2024-04-13 11:12 pmENE 4.1 4.1----30.13- 11.3 32.0----
2024-04-13 11:06 pmENE 2.9 4.1----30.13- 11.7 32.0----
2024-04-13 11:00 pmENE 2.9 4.1----30.13+0.04 10.9 32.0----
2024-04-13 10:54 pmENE 2.9 2.9----30.13- 11.8 32.0----
2024-04-13 10:48 pmENE 2.9 2.9----30.13-------
2024-04-13 10:42 pmENE 2.9 4.1----30.13- 12.6 32.0----
2024-04-13 10:36 pmENE 4.1 4.1----30.13- 12.0 32.0----
2024-04-13 10:30 pm E 4.1 4.1----30.13- 11.8 32.0----
2024-04-13 10:24 pm E 4.1 5.1----30.12- 11.7 32.0----
2024-04-13 10:18 pm E 2.9 4.1----30.12-- 32.0----
2024-04-13 10:12 pm E 2.9 4.1----30.12- 12.9 32.0----
2024-04-13 10:06 pm E 4.1 6.0----30.12- 13.3 32.0----
2024-04-13 10:00 pmESE 5.1 5.1----30.12+0.04 13.8 32.0----
2024-04-13 09:54 pm E 5.1 6.0----30.12- 14.7 32.0----
2024-04-13 09:48 pm E 6.0 7.0----30.12- 15.3 32.0----
2024-04-13 09:42 pm E 7.0 7.0----30.12- 15.6 32.0----
2024-04-13 09:36 pm E 6.0 7.0----30.11- 16.2 32.0----
2024-04-13 09:30 pm E 6.0 6.0----30.11- 16.2 32.0----
2024-04-13 09:24 pm E 6.0 7.0----30.11- 16.7 32.0----
2024-04-13 09:18 pm E 6.0 7.0------------
2024-04-13 09:12 pm E 7.0 7.0----30.11- 17.4 32.0----
2024-04-13 09:06 pm E 7.0 7.0----30.11- 17.6 32.0----
2024-04-13 09:00 pm E 7.0 8.0----30.11+0.04 18.1 32.0----
2024-04-13 08:54 pm E 7.0 8.0----30.11- 18.5 32.0----
2024-04-13 08:48 pm E 6.0 7.0----30.11- 18.7 32.0----
2024-04-13 08:42 pm E 6.0 7.0----30.11- 19.0 32.0----
2024-04-13 08:36 pm E 6.0 7.0----30.11- 19.4 32.0----
2024-04-13 08:30 pm E 6.0 8.0----30.11- 19.9 32.0----
2024-04-13 08:24 pm E 7.0 8.0----30.11- 20.3 32.0----
2024-04-13 08:18 pm E 7.0 8.0----30.11- 20.7 32.0----
2024-04-13 08:12 pm E 7.0 8.0----30.11- 20.8 32.0----
2024-04-13 08:06 pm E 8.0 8.9----30.10- 21.2 32.0----
2024-04-13 08:00 pm E 8.9 11.1----30.10+0.04 21.4 32.0----
2024-04-13 07:54 pm E 8.9 11.1----30.09- 21.9 32.0----
2024-04-13 07:48 pm E 8.9 9.9----30.09- 22.1 32.0----
2024-04-13 07:42 pmESE 8.9 11.1----30.09- 22.1 32.0----
2024-04-13 07:36 pm E 8.0 9.9----30.09- 22.5 32.0----
2024-04-13 07:30 pm E 8.0 9.9----30.09- 22.3 32.0----
2024-04-13 07:24 pm E 8.9 9.9----30.09- 22.3 32.0----
2024-04-13 07:18 pm E 8.9 11.1----30.09- 21.7 32.0----
2024-04-13 07:12 pm E 8.9 11.1----30.09- 22.1 32.0----
2024-04-13 07:06 pm E 8.9 11.1----30.09- 22.1 32.0----
2024-04-13 07:00 pm E 8.9 9.9----30.09+0.04 22.6 32.0----
2024-04-13 06:54 pm E 8.0 9.9----30.08- 22.6 32.0----
2024-04-13 06:48 pmENE 7.0 9.9----30.08- 23.2 32.0----
2024-04-13 06:42 pmENE 6.0 8.9----30.08- 23.9 32.0----
2024-04-13 06:36 pmENE 7.0 8.9----30.08- 24.1 32.0----
2024-04-13 06:30 pmWNW 1.0 2.9----30.08- 25.9 32.0----
2024-04-13 06:24 pm W 1.9 1.9----30.08- 25.3 32.0----
2024-04-13 06:18 pmWNW 1.9 4.1----30.07- 25.2 32.0----
2024-04-13 06:12 pm NW 4.1 5.1----30.07- 24.4 32.0----
2024-04-13 06:06 pmWNW 4.1 5.1----30.07- 23.9 32.0----
2024-04-13 06:00 pmWNW 5.1 6.0----30.07+0.03 23.2 32.0----
2024-04-13 05:54 pm W 5.1 7.0----30.07- 22.3 32.0----
2024-04-13 05:48 pm W 7.0 9.9----30.07- 22.1 32.0----
2024-04-13 05:42 pm W 9.9 9.9----30.07- 21.6 32.0----
2024-04-13 05:36 pm W 8.0 8.9----30.07- 22.1 32.0----
2024-04-13 05:30 pm W 8.0 9.9----30.07- 21.9 32.0----
2024-04-13 05:24 pm W 8.9 8.9----30.07- 21.7 32.0----
2024-04-13 05:18 pm W 8.0 9.9----30.06- 22.1 32.0----
2024-04-13 05:12 pm W 8.0 9.9----30.06- 22.5 32.0----
2024-04-13 05:06 pm W 9.9 11.1----30.06- 22.1 32.0----
2024-04-13 05:00 pm W 9.9 11.1----30.06+0.03 22.1 32.0----
2024-04-13 04:54 pm W 9.9 9.9----30.06- 22.5 32.0----
2024-04-13 04:48 pm W 8.9 9.9----30.06- 22.3 32.0----
2024-04-13 04:42 pm W 8.0 9.9----30.06- 22.3 32.0----
2024-04-13 04:36 pm W 6.0 7.0----30.06- 22.6 32.0----
2024-04-13 04:30 pm W 6.0 7.0----30.06- 22.8 32.0----
2024-04-13 04:24 pm W 4.1 5.1----30.05- 23.4 32.0----
2024-04-13 04:18 pm-------30.05- 23.2 32.0----
2024-04-13 04:12 pm-------30.05- 23.4 32.0----
2024-04-13 04:06 pm-------30.05- 23.0 32.0----
2024-04-13 04:00 pm-------30.05+0.04 22.8 32.0----
2024-04-13 03:54 pm-------30.05- 22.6 32.0----
2024-04-13 03:48 pm W 8.0 8.9----30.05- 22.6 32.0----
2024-04-13 03:42 pm W 8.0 9.9----30.05- 22.6 32.0----
2024-04-13 03:36 pm W 8.9 11.1----30.05- 22.5 32.0----
2024-04-13 03:30 pm W 8.9 12.0----30.04- 22.6 32.0----
2024-04-13 03:24 pm W 12.0 14.0----30.04- 22.5 32.0----
2024-04-13 03:18 pm W 12.0 14.0----30.04- 22.5 32.0----
2024-04-13 03:12 pm W 12.0 13.0----30.04- 22.3 32.0----
2024-04-13 03:06 pm W 11.1 11.1----30.04- 22.5 32.0----
2024-04-13 03:00 pm W 8.9 9.9----30.04+0.04 22.6 32.0----
2024-04-13 02:54 pm W 8.0 8.9----30.04- 22.8 32.0----